Time,TemperatureF,DewpointF,PressureIn,WindDirection,WindDirectionDegrees,WindSpeedMPH,WindSpeedGustMPH,Humidity,HourlyPrecipIn,Conditions,Clouds,dailyrainin,SoftwareType,DateUTC
2013-09-02 00:02:00,59.2,53.0,29.93,WNW,297,0.0,1.0,80,0.00,,SCT120,0.00,VWS V14.01,2013-09-02 05:02:00,
2013-09-02 00:07:00,59.0,52.8,29.93,NE,50,1.0,1.0,80,0.00,,SCT120,0.00,VWS V14.01,2013-09-02 05:07:00,
2013-09-02 00:12:00,58.7,52.6,29.93,WSW,257,0.0,1.0,80,0.00,,SCT120,0.00,VWS V14.01,2013-09-02 05:12:00,
2013-09-02 00:17:00,58.4,52.6,29.93,WSW,248,0.0,1.0,81,0.00,,SCT120,0.00,VWS V14.01,2013-09-02 05:17:00,
2013-09-02 00:22:00,58.0,52.2,29.93,WNW,295,0.0,1.0,81,0.00,,SCT120,0.00,VWS V14.01,2013-09-02 05:22:00,
2013-09-02 00:27:00,57.7,52.2,29.93,West,259,0.0,1.0,82,0.00,,SCT120,0.00,VWS V14.01,2013-09-02 05:27:00,
2013-09-02 00:32:00,57.6,52.5,29.93,WNW,293,0.0,1.0,83,0.00,,BKN110,0.00,VWS V14.01,2013-09-02 05:32:00,
2013-09-02 00:37:00,57.5,52.1,29.93,SE,139,0.0,1.0,82,0.00,,BKN110,0.00,VWS V14.01,2013-09-02 05:37:00,
2013-09-02 00:42:00,57.3,51.9,29.93,WSW,257,0.0,1.0,82,0.00,,BKN110,0.00,VWS V14.01,2013-09-02 05:42:00,
2013-09-02 00:47:00,57.2,51.8,29.93,ENE,60,0.0,3.0,82,0.00,,SCT110,0.00,VWS V14.01,2013-09-02 05:47:00,
2013-09-02 00:52:00,56.9,51.5,29.93,ESE,116,0.0,3.0,82,0.00,,BKN120,0.00,VWS V14.01,2013-09-02 05:52:00,
2013-09-02 00:57:00,56.7,51.6,29.93,WSW,240,0.0,3.0,83,0.00,,BKN120,0.00,VWS V14.01,2013-09-02 05:57:00,
2013-09-02 01:02:00,56.5,51.4,29.93,West,266,1.0,1.0,83,0.00,,BKN120,0.00,VWS V14.01,2013-09-02 06:02:00,
2013-09-02 01:07:00,56.3,51.2,29.93,SW,225,0.0,1.0,83,0.00,,BKN120,0.00,VWS V14.01,2013-09-02 06:07:00,
2013-09-02 01:12:00,56.0,51.2,29.93,NNE,27,0.0,1.0,84,0.00,,BKN120,0.00,VWS V14.01,2013-09-02 06:12:00,
2013-09-02 01:17:00,55.9,51.1,29.93,SW,225,0.0,3.0,84,0.00,,BKN120,0.00,VWS V14.01,2013-09-02 06:17:00,
2013-09-02 01:22:00,55.8,51.0,29.94,WSW,255,0.0,3.0,84,0.00,,BKN120,0.00,VWS V14.01,2013-09-02 06:22:00,
2013-09-02 01:27:00,55.7,51.3,29.94,ESE,110,0.0,3.0,85,0.00,,BKN120,0.00,VWS V14.01,2013-09-02 06:27:00,
2013-09-02 01:32:00,55.5,51.1,29.94,ESE,109,0.0,1.0,85,0.00,,OVC110,0.00,VWS V14.01,2013-09-02 06:32:00,
2013-09-02 01:37:00,55.4,51.0,29.94,NW,319,0.0,1.0,85,0.00,,OVC110,0.00,VWS V14.01,2013-09-02 06:37:00,
2013-09-02 01:42:00,55.3,51.2,29.94,SSE,159,0.0,1.0,86,0.00,,OVC110,0.00,VWS V14.01,2013-09-02 06:42:00,
2013-09-02 01:47:00,55.2,51.1,29.94,WSW,255,0.0,1.0,86,0.00,,BKN120,0.00,VWS V14.01,2013-09-02 06:47:00,
2013-09-02 01:52:00,55.2,51.4,29.94,ESE,110,0.0,2.0,87,0.00,,OVC033,0.00,VWS V14.01,2013-09-02 06:52:00,
2013-09-02 01:57:00,55.3,51.5,29.94,ENE,74,1.0,2.0,87,0.00,,OVC033,0.00,VWS V14.01,2013-09-02 06:57:00,
2013-09-02 02:02:00,55.5,51.7,29.94,NW,322,0.0,5.0,87,0.00,,OVC033,0.00,VWS V14.01,2013-09-02 07:02:00,
2013-09-02 02:07:00,55.9,52.1,29.94,ENE,65,0.0,6.0,87,0.00,,OVC033,0.00,VWS V14.01,2013-09-02 07:07:00,
2013-09-02 02:12:00,56.2,52.4,29.95,ESE,102,1.0,6.0,87,0.00,,OVC033,0.00,VWS V14.01,2013-09-02 07:12:00,
2013-09-02 02:17:00,56.5,52.7,29.95,ENE,65,0.0,6.0,87,0.00,,OVC033,0.00,VWS V14.01,2013-09-02 07:17:00,
2013-09-02 02:22:00,56.8,52.7,29.95,SE,125,1.0,6.0,86,0.00,,OVC033,0.00,VWS V14.01,2013-09-02 07:22:00,
2013-09-02 02:27:00,57.2,53.1,29.95,NNW,342,0.0,6.0,86,0.00,,OVC033,0.00,VWS V14.01,2013-09-02 07:27:00,
2013-09-02 02:32:00,57.4,52.9,29.95,ESE,115,0.0,3.0,85,0.00,,OVC028,0.00,VWS V14.01,2013-09-02 07:32:00,
2013-09-02 02:37:00,57.6,53.1,29.95,NE,38,0.0,3.0,85,0.00,,OVC028,0.00,VWS V14.01,2013-09-02 07:37:00,
2013-09-02 02:42:00,57.8,53.0,29.94,ESE,109,1.0,4.0,84,0.00,,OVC028,0.00,VWS V14.01,2013-09-02 07:42:00,
2013-09-02 02:47:00,57.8,53.0,29.94,ESE,102,0.0,4.0,84,0.00,,OVC028,0.00,VWS V14.01,2013-09-02 07:47:00,
2013-09-02 02:52:00,57.9,52.8,29.95,East,89,0.0,4.0,83,0.00,,OVC028,0.00,VWS V14.01,2013-09-02 07:52:00,
2013-09-02 02:57:00,57.9,53.1,29.95,NW,305,0.0,4.0,84,0.00,,OVC028,0.00,VWS V14.01,2013-09-02 07:57:00,
2013-09-02 03:02:00,57.9,53.1,29.95,East,82,0.0,2.0,84,0.00,,OVC028,0.00,VWS V14.01,2013-09-02 08:02:00,
2013-09-02 03:07:00,57.9,53.1,29.95,NW,316,1.0,2.0,84,0.00,,OVC028,0.00,VWS V14.01,2013-09-02 08:07:00,
2013-09-02 03:12:00,57.8,53.0,29.95,NNE,15,0.0,4.0,84,0.00,,OVC028,0.00,VWS V14.01,2013-09-02 08:12:00,
2013-09-02 03:17:00,57.8,52.7,29.95,East,97,1.0,4.0,83,0.00,,OVC028,0.00,VWS V14.01,2013-09-02 08:17:00,
2013-09-02 03:22:00,57.8,52.7,29.95,SE,136,0.0,4.0,83,0.00,,OVC028,0.00,VWS V14.01,2013-09-02 08:22:00,
2013-09-02 03:27:00,57.7,52.6,29.95,North,6,0.0,4.0,83,0.00,,OVC028,0.00,VWS V14.01,2013-09-02 08:27:00,
2013-09-02 03:32:00,57.6,52.5,29.95,NE,44,1.0,4.0,83,0.00,,OVC026,0.00,VWS V14.01,2013-09-02 08:32:00,
2013-09-02 03:37:00,57.5,52.7,29.95,NNE,23,0.0,4.0,84,0.00,,OVC026,0.00,VWS V14.01,2013-09-02 08:37:00,
2013-09-02 03:42:00,57.5,52.7,29.96,ENE,74,0.0,4.0,84,0.00,,OVC026,0.00,VWS V14.01,2013-09-02 08:42:00,
2013-09-02 03:47:00,57.4,52.9,29.96,SE,136,0.0,4.0,85,0.00,,OVC024,0.00,VWS V14.01,2013-09-02 08:47:00,
2013-09-02 03:52:00,57.3,52.5,29.96,NW,307,0.0,4.0,84,0.00,,OVC110,0.00,VWS V14.01,2013-09-02 08:52:00,
2013-09-02 03:57:00,57.1,52.3,29.96,ESE,113,0.0,4.0,84,0.00,,OVC110,0.00,VWS V14.01,2013-09-02 08:57:00,
2013-09-02 04:02:00,56.8,52.0,29.96,West,280,0.0,1.0,84,0.00,,OVC110,0.00,VWS V14.01,2013-09-02 09:02:00,
2013-09-02 04:07:00,56.5,52.0,29.96,West,262,0.0,2.0,85,0.00,,OVC110,0.00,VWS V14.01,2013-09-02 09:07:00,
2013-09-02 04:12:00,56.5,52.0,29.96,North,6,0.0,2.0,85,0.00,,OVC110,0.00,VWS V14.01,2013-09-02 09:12:00,
2013-09-02 04:17:00,56.3,51.9,29.96,NNE,16,0.0,2.0,85,0.00,,OVC110,0.00,VWS V14.01,2013-09-02 09:17:00,
2013-09-02 04:22:00,56.3,51.9,29.97,NW,314,0.0,4.0,85,0.00,,OVC110,0.00,VWS V14.01,2013-09-02 09:22:00,
2013-09-02 04:27:00,56.3,51.9,29.97,NNW,328,1.0,5.0,85,0.00,,OVC110,0.00,VWS V14.01,2013-09-02 09:27:00,
2013-09-02 04:32:00,56.3,51.9,29.97,NNW,338,1.0,4.0,85,0.00,,OVC030,0.00,VWS V14.01,2013-09-02 09:32:00,
2013-09-02 04:37:00,56.3,51.9,29.97,East,84,0.0,4.0,85,0.00,,OVC030,0.00,VWS V14.01,2013-09-02 09:37:00,
2013-09-02 04:42:00,56.3,51.5,29.97,ESE,105,1.0,5.0,84,0.00,,OVC030,0.00,VWS V14.01,2013-09-02 09:42:00,
2013-09-02 04:47:00,56.3,51.5,29.97,NE,56,1.0,5.0,84,0.00,,OVC030,0.00,VWS V14.01,2013-09-02 09:47:00,
2013-09-02 04:52:00,56.3,51.5,29.97,NNW,338,0.0,5.0,84,0.00,,OVC028,0.00,VWS V14.01,2013-09-02 09:52:00,
2013-09-02 04:57:00,56.3,51.5,29.98,North,351,0.0,5.0,84,0.00,,OVC028,0.00,VWS V14.01,2013-09-02 09:57:00,
2013-09-02 05:02:00,56.3,51.5,29.98,East,92,0.0,3.0,84,0.00,,OVC028,0.00,VWS V14.01,2013-09-02 10:02:00,
2013-09-02 05:07:00,56.3,51.5,29.98,NE,41,0.0,3.0,84,0.00,,OVC028,0.00,VWS V14.01,2013-09-02 10:07:00,
2013-09-02 05:12:00,56.3,51.5,29.98,East,91,1.0,3.0,84,0.00,,OVC028,0.00,VWS V14.01,2013-09-02 10:12:00,
2013-09-02 05:17:00,56.3,51.2,29.98,WSW,244,0.0,7.0,83,0.00,,OVC028,0.00,VWS V14.01,2013-09-02 10:17:00,
2013-09-02 05:22:00,56.3,51.2,29.98,NNW,327,2.0,7.0,83,0.00,,OVC028,0.00,VWS V14.01,2013-09-02 10:22:00,
2013-09-02 05:27:00,56.3,51.2,29.98,NNE,17,0.0,7.0,83,0.00,,OVC028,0.00,VWS V14.01,2013-09-02 10:27:00,
2013-09-02 05:32:00,56.3,51.2,29.98,North,351,1.0,7.0,83,0.00,,OVC020,0.00,VWS V14.01,2013-09-02 10:32:00,
2013-09-02 05:37:00,56.2,51.1,29.98,ENE,78,2.0,7.0,83,0.00,,OVC020,0.00,VWS V14.01,2013-09-02 10:37:00,
2013-09-02 05:42:00,56.1,51.0,29.98,East,85,0.0,7.0,83,0.00,,OVC020,0.00,VWS V14.01,2013-09-02 10:42:00,
2013-09-02 05:47:00,56.1,51.0,29.98,NNE,32,1.0,7.0,83,0.00,,OVC020,0.00,VWS V14.01,2013-09-02 10:47:00,
2013-09-02 05:52:00,56.1,51.0,29.98,ESE,117,0.0,7.0,83,0.00,,OVC020,0.00,VWS V14.01,2013-09-02 10:52:00,
2013-09-02 05:57:00,56.1,51.0,29.99,East,101,0.0,7.0,83,0.00,,OVC020,0.00,VWS V14.01,2013-09-02 10:57:00,
2013-09-02 06:02:00,56.1,51.0,29.99,ESE,102,0.0,1.0,83,0.00,,OVC020,0.00,VWS V14.01,2013-09-02 11:02:00,
2013-09-02 06:07:00,56.0,50.9,29.99,ENE,60,0.0,1.0,83,0.00,,OVC020,0.00,VWS V14.01,2013-09-02 11:07:00,
2013-09-02 06:12:00,56.0,50.9,29.99,East,100,1.0,3.0,83,0.00,,OVC020,0.00,VWS V14.01,2013-09-02 11:12:00,
2013-09-02 06:17:00,56.0,50.9,29.99,NE,48,0.0,4.0,83,0.00,,OVC020,0.00,VWS V14.01,2013-09-02 11:17:00,
2013-09-02 06:22:00,56.0,51.2,29.99,NE,50,0.0,4.0,84,0.00,,OVC020,0.00,VWS V14.01,2013-09-02 11:22:00,
2013-09-02 06:27:00,56.0,50.9,29.99,NNE,20,1.0,4.0,83,0.00,,OVC020,0.00,VWS V14.01,2013-09-02 11:27:00,
2013-09-02 06:32:00,56.0,50.9,30.00,NNE,21,0.0,2.0,83,0.00,,OVC020,0.00,VWS V14.01,2013-09-02 11:32:00,
2013-09-02 06:37:00,56.0,50.9,30.00,NE,41,1.0,5.0,83,0.00,,OVC022,0.00,VWS V14.01,2013-09-02 11:37:00,
2013-09-02 06:42:00,56.0,50.9,30.00,ENE,60,0.0,5.0,83,0.00,,OVC022,0.00,VWS V14.01,2013-09-02 11:42:00,
2013-09-02 06:47:00,56.0,50.9,30.00,ENE,65,0.0,5.0,83,0.00,,OVC022,0.00,VWS V14.01,2013-09-02 11:47:00,
2013-09-02 06:52:00,56.0,50.6,30.00,ESE,122,0.0,5.0,82,0.00,,OVC024,0.00,VWS V14.01,2013-09-02 11:52:00,
2013-09-02 06:57:00,56.1,50.7,30.00,North,354,0.0,5.0,82,0.00,,OVC020,0.00,VWS V14.01,2013-09-02 11:57:00,
2013-09-02 07:02:00,56.1,50.4,30.00,East,86,0.0,4.0,81,0.00,,OVC024,0.00,VWS V14.01,2013-09-02 12:02:00,
2013-09-02 07:06:00,56.2,50.1,30.01,NE,41,2.0,4.0,80,0.00,,OVC024,0.00,VWS V14.01,2013-09-02 12:06:00,
2013-09-02 07:12:00,56.2,50.1,30.01,NNE,15,1.0,5.0,80,0.00,,OVC024,0.00,VWS V14.01,2013-09-02 12:12:00,
2013-09-02 07:17:00,56.2,49.8,30.01,NNW,332,0.0,8.0,79,0.00,,OVC020,0.00,VWS V14.01,2013-09-02 12:17:00,
2013-09-02 07:22:00,56.2,49.8,30.01,NNW,335,0.0,8.0,79,0.00,,OVC024,0.00,VWS V14.01,2013-09-02 12:22:00,
2013-09-02 07:27:00,56.1,49.7,30.01,ENE,65,1.0,8.0,79,0.00,,OVC024,0.00,VWS V14.01,2013-09-02 12:27:00,
2013-09-02 07:32:00,56.2,49.8,30.02,NNE,12,5.0,5.0,79,0.00,,OVC022,0.00,VWS V14.01,2013-09-02 12:32:00,
2013-09-02 07:37:00,56.2,50.1,30.02,WNW,293,1.0,6.0,80,0.00,,OVC022,0.00,VWS V14.01,2013-09-02 12:37:00,
2013-09-02 07:42:00,56.1,50.0,30.02,NNE,19,0.0,6.0,80,0.00,,OVC022,0.00,VWS V14.01,2013-09-02 12:42:00,
2013-09-02 07:46:00,56.1,50.4,30.02,NE,47,0.0,6.0,81,0.00,,OVC022,0.00,VWS V14.01,2013-09-02 12:46:00,
2013-09-02 07:51:00,56.1,50.4,30.02,ESE,121,0.0,6.0,81,0.00,,OVC022,0.00,VWS V14.01,2013-09-02 12:51:00,
2013-09-02 07:56:00,55.9,50.2,30.02,North,352,3.0,6.0,81,0.00,,OVC022,0.00,VWS V14.01,2013-09-02 12:56:00,
2013-09-02 08:01:00,55.7,50.3,30.02,ESE,122,0.0,5.0,82,0.00,,OVC022,0.00,VWS V14.01,2013-09-02 13:01:00,
2013-09-02 08:06:00,55.7,50.3,30.02,ESE,105,0.0,5.0,82,0.00,,OVC022,0.00,VWS V14.01,2013-09-02 13:06:00,
2013-09-02 08:11:00,55.5,50.1,30.03,SSW,195,0.0,7.0,82,0.00,,OVC022,0.00,VWS V14.01,2013-09-02 13:11:00,
2013-09-02 08:16:00,55.1,49.7,30.03,WSW,238,0.0,7.0,82,0.00,,OVC022,0.00,VWS V14.01,2013-09-02 13:16:00,
2013-09-02 08:21:00,54.8,49.7,30.03,North,352,2.0,7.0,83,0.00,,OVC022,0.00,VWS V14.01,2013-09-02 13:21:00,
2013-09-02 08:26:00,54.6,49.9,30.03,NW,316,0.0,7.0,84,0.00,,OVC022,0.00,VWS V14.01,2013-09-02 13:26:00,
2013-09-02 08:31:00,54.7,50.0,30.03,NW,316,0.0,5.0,84,0.00,,OVC022,0.00,VWS V14.01,2013-09-02 13:31:00,
2013-09-02 08:36:00,55.3,50.2,30.03,North,11,1.0,6.0,83,0.00,,OVC020,0.00,VWS V14.01,2013-09-02 13:36:00,
2013-09-02 08:41:00,55.8,51.0,30.03,NNW,336,2.0,6.0,84,0.00,,OVC020,0.00,VWS V14.01,2013-09-02 13:41:00,
2013-09-02 08:46:00,55.9,50.2,30.03,NNW,344,1.0,6.0,81,0.00,,OVC020,0.00,VWS V14.01,2013-09-02 13:46:00,
2013-09-02 08:51:00,56.0,50.6,30.03,WSW,249,0.0,6.0,82,0.00,,SCT090,0.00,VWS V14.01,2013-09-02 13:51:00,
2013-09-02 08:56:00,56.1,50.4,30.04,ESE,113,0.0,6.0,81,0.00,,OVC022,0.00,VWS V14.01,2013-09-02 13:56:00,
2013-09-02 09:01:00,56.4,50.7,30.04,East,86,0.0,2.0,81,0.00,,SCT090,0.00,VWS V14.01,2013-09-02 14:01:00,
2013-09-02 09:06:00,57.0,50.9,30.04,East,100,0.0,5.0,80,0.00,,SCT090,0.00,VWS V14.01,2013-09-02 14:06:00,
2013-09-02 09:11:00,57.1,50.7,30.04,West,267,0.0,5.0,79,0.00,,SCT090,0.00,VWS V14.01,2013-09-02 14:11:00,
2013-09-02 09:16:00,56.9,50.5,30.04,West,276,1.0,5.0,79,0.00,,OVC022,0.00,VWS V14.01,2013-09-02 14:16:00,
2013-09-02 09:21:00,56.5,50.1,30.04,North,4,6.0,6.0,79,0.00,,SCT090,0.00,VWS V14.01,2013-09-02 14:21:00,
2013-09-02 09:26:00,56.7,50.3,30.04,North,6,2.0,6.0,79,0.00,,SCT090,0.00,VWS V14.01,2013-09-02 14:26:00,
2013-09-02 09:31:00,57.3,50.8,30.04,WNW,283,1.0,8.0,79,0.00,,BKN022,0.00,VWS V14.01,2013-09-02 14:31:00,
2013-09-02 09:36:00,57.7,50.9,30.04,WNW,286,6.0,8.0,78,0.00,,OVC020,0.00,VWS V14.01,2013-09-02 14:36:00,
2013-09-02 09:41:00,57.6,50.5,30.04,SW,226,0.0,8.0,77,0.00,,OVC020,0.00,VWS V14.01,2013-09-02 14:41:00,
2013-09-02 09:46:00,57.8,50.7,30.04,SW,235,3.0,8.0,77,0.00,,OVC020,0.00,VWS V14.01,2013-09-02 14:46:00,
2013-09-02 09:51:00,57.6,50.5,30.05,NNE,17,2.0,8.0,77,0.00,,OVC020,0.00,VWS V14.01,2013-09-02 14:51:00,
2013-09-02 09:56:00,57.5,50.4,30.05,NE,53,0.0,8.0,77,0.00,,BKN022,0.00,VWS V14.01,2013-09-02 14:56:00,
2013-09-02 10:01:00,57.3,50.2,30.05,West,266,5.0,7.0,77,0.00,,OVC020,0.00,VWS V14.01,2013-09-02 15:01:00,
2013-09-02 10:06:00,57.0,50.2,30.05,NNE,32,1.0,7.0,78,0.00,,OVC020,0.00,VWS V14.01,2013-09-02 15:06:00,
2013-09-02 10:11:00,56.8,50.0,30.06,NW,321,4.0,7.0,78,0.00,,OVC020,0.00,VWS V14.01,2013-09-02 15:11:00,
2013-09-02 10:16:00,56.8,50.4,30.06,NNE,33,1.0,7.0,79,0.00,,BKN022,0.00,VWS V14.01,2013-09-02 15:16:00,
2013-09-02 10:21:00,56.7,50.3,30.06,NE,39,2.0,7.0,79,0.00,,OVC020,0.00,VWS V14.01,2013-09-02 15:21:00,
2013-09-02 10:26:00,56.7,50.3,30.06,WSW,258,1.0,7.0,79,0.00,,OVC020,0.00,VWS V14.01,2013-09-02 15:26:00,
2013-09-02 10:31:00,56.7,49.9,30.06,WNW,287,1.0,4.0,78,0.00,,OVC016,0.00,VWS V14.01,2013-09-02 15:31:00,
2013-09-02 10:36:00,56.6,50.5,30.06,NW,316,0.0,4.0,80,0.00,,OVC016,0.00,VWS V14.01,2013-09-02 15:36:00,
2013-09-02 10:41:00,56.9,50.5,30.06,East,79,0.0,4.0,79,0.00,,OVC016,0.00,VWS V14.01,2013-09-02 15:41:00,
2013-09-02 10:46:00,57.0,50.6,30.06,NW,311,1.0,5.0,79,0.00,,OVC016,0.00,VWS V14.01,2013-09-02 15:46:00,
2013-09-02 10:51:00,56.9,50.5,30.06,NNW,340,0.0,5.0,79,0.00,,OVC016,0.00,VWS V14.01,2013-09-02 15:51:00,
2013-09-02 10:56:00,57.0,50.6,30.06,NE,56,1.0,5.0,79,0.00,,OVC016,0.00,VWS V14.01,2013-09-02 15:56:00,
2013-09-02 11:01:00,57.0,50.2,30.06,NE,47,1.0,4.0,78,0.00,,OVC016,0.00,VWS V14.01,2013-09-02 16:01:00,
2013-09-02 11:06:00,57.0,50.6,30.06,NE,54,1.0,4.0,79,0.00,,OVC016,0.00,VWS V14.01,2013-09-02 16:06:00,
2013-09-02 11:11:00,57.3,50.8,30.06,East,82,0.0,4.0,79,0.00,,OVC016,0.00,VWS V14.01,2013-09-02 16:11:00,
2013-09-02 11:16:00,57.8,51.0,30.06,NNE,32,1.0,4.0,78,0.00,,OVC016,0.00,VWS V14.01,2013-09-02 16:16:00,
2013-09-02 11:21:00,57.6,50.5,30.06,NE,56,0.0,4.0,77,0.00,,OVC016,0.00,VWS V14.01,2013-09-02 16:21:00,
2013-09-02 11:26:00,57.6,50.8,30.06,North,9,0.0,4.0,78,0.00,,OVC016,0.00,VWS V14.01,2013-09-02 16:26:00,
2013-09-02 11:31:00,57.6,50.5,30.06,East,95,0.0,6.0,77,0.00,,OVC016,0.00,VWS V14.01,2013-09-02 16:31:00,
2013-09-02 11:36:00,57.9,51.1,30.06,North,357,1.0,6.0,78,0.00,,OVC018,0.00,VWS V14.01,2013-09-02 16:36:00,
2013-09-02 11:41:00,58.0,50.8,30.06,NNW,341,1.0,6.0,77,0.00,,OVC018,0.00,VWS V14.01,2013-09-02 16:41:00,
2013-09-02 11:46:00,58.2,51.4,30.06,North,350,4.0,6.0,78,0.00,,OVC018,0.00,VWS V14.01,2013-09-02 16:46:00,
2013-09-02 11:51:00,58.2,51.0,30.06,NW,325,0.0,6.0,77,0.00,,OVC018,0.00,VWS V14.01,2013-09-02 16:51:00,
2013-09-02 11:56:00,58.4,51.2,30.06,East,92,0.0,6.0,77,0.00,,OVC016,0.00,VWS V14.01,2013-09-02 16:56:00,
2013-09-02 12:01:00,58.5,51.3,30.06,NE,41,0.0,2.0,77,0.00,,OVC018,0.00,VWS V14.01,2013-09-02 17:01:00,
2013-09-02 12:06:00,58.9,51.0,30.06,NW,326,0.0,6.0,75,0.00,,OVC018,0.00,VWS V14.01,2013-09-02 17:06:00,
2013-09-02 12:11:00,59.3,51.0,30.06,North,349,2.0,6.0,74,0.00,,OVC018,0.00,VWS V14.01,2013-09-02 17:11:00,
2013-09-02 12:16:00,59.3,51.4,30.06,WNW,290,1.0,6.0,75,0.00,,OVC016,0.00,VWS V14.01,2013-09-02 17:16:00,
2013-09-02 12:21:00,59.4,51.1,30.06,WNW,302,1.0,6.0,74,0.00,,OVC018,0.00,VWS V14.01,2013-09-02 17:21:00,
2013-09-02 12:26:00,59.8,51.5,30.06,WNW,287,2.0,6.0,74,0.00,,OVC018,0.00,VWS V14.01,2013-09-02 17:26:00,
2013-09-02 12:31:00,59.8,51.5,30.06,NE,44,0.0,2.0,74,0.00,,OVC020,0.00,VWS V14.01,2013-09-02 17:31:00,
2013-09-02 12:36:00,59.9,52.0,30.06,North,356,2.0,3.0,75,0.00,,OVC020,0.00,VWS V14.01,2013-09-02 17:36:00,
2013-09-02 12:41:00,60.1,51.4,30.06,NNE,33,3.0,3.0,73,0.00,,OVC020,0.00,VWS V14.01,2013-09-02 17:41:00,
2013-09-02 12:46:00,60.2,51.9,30.05,ESE,112,1.0,3.0,74,0.00,,OVC020,0.00,VWS V14.01,2013-09-02 17:46:00,
2013-09-02 12:51:00,60.2,51.2,30.05,ESE,104,1.0,5.0,72,0.00,,OVC022,0.00,VWS V14.01,2013-09-02 17:51:00,
2013-09-02 12:56:00,60.1,51.4,30.05,NNE,17,0.0,5.0,73,0.00,,OVC020,0.00,VWS V14.01,2013-09-02 17:56:00,
2013-09-02 13:01:00,60.5,51.8,30.05,North,353,0.0,4.0,73,0.00,,OVC022,0.00,VWS V14.01,2013-09-02 18:01:00,
2013-09-02 13:06:00,61.1,51.6,30.05,WNW,293,1.0,4.0,71,0.00,,OVC022,0.00,VWS V14.01,2013-09-02 18:06:00,
2013-09-02 13:11:00,61.2,52.1,30.05,NW,306,2.0,4.0,72,0.00,,OVC022,0.00,VWS V14.01,2013-09-02 18:11:00,
2013-09-02 13:16:00,61.4,51.9,30.05,NE,49,1.0,4.0,71,0.00,,OVC020,0.00,VWS V14.01,2013-09-02 18:16:00,
2013-09-02 13:21:00,61.4,51.5,30.04,East,100,0.0,4.0,70,0.00,,OVC022,0.00,VWS V14.01,2013-09-02 18:21:00,
2013-09-02 13:26:00,61.7,51.8,30.04,West,269,2.0,4.0,70,0.00,,OVC022,0.00,VWS V14.01,2013-09-02 18:26:00,
2013-09-02 13:31:00,61.7,51.8,30.04,NNW,329,1.0,3.0,70,0.00,,OVC022,0.00,VWS V14.01,2013-09-02 18:31:00,
2013-09-02 13:36:00,62.5,52.2,30.04,NNW,337,0.0,3.0,69,0.00,,OVC024,0.00,VWS V14.01,2013-09-02 18:36:00,
2013-09-02 13:41:00,62.6,51.9,30.04,West,262,1.0,3.0,68,0.00,,OVC024,0.00,VWS V14.01,2013-09-02 18:41:00,
2013-09-02 13:46:00,62.5,52.6,30.04,WNW,297,0.0,4.0,70,0.00,,OVC024,0.00,VWS V14.01,2013-09-02 18:46:00,
2013-09-02 13:51:00,62.6,51.9,30.04,West,279,0.0,4.0,68,0.00,,OVC024,0.00,VWS V14.01,2013-09-02 18:51:00,
2013-09-02 13:56:00,62.6,52.3,30.04,NW,314,2.0,4.0,69,0.00,,OVC024,0.00,VWS V14.01,2013-09-02 18:56:00,
2013-09-02 14:01:00,62.9,52.6,30.04,WNW,297,1.0,3.0,69,0.00,,OVC024,0.00,VWS V14.01,2013-09-02 19:01:00,
2013-09-02 14:06:00,63.1,52.4,30.04,WNW,294,1.0,3.0,68,0.00,,OVC024,0.00,VWS V14.01,2013-09-02 19:06:00,
2013-09-02 14:11:00,63.2,52.5,30.04,WNW,287,3.0,3.0,68,0.00,,OVC024,0.00,VWS V14.01,2013-09-02 19:11:00,
2013-09-02 14:16:00,63.6,52.5,30.03,NW,325,0.0,3.0,67,0.00,,OVC022,0.00,VWS V14.01,2013-09-02 19:16:00,
2013-09-02 14:21:00,64.3,53.1,30.03,North,11,1.0,3.0,67,0.00,,OVC024,0.00,VWS V14.01,2013-09-02 19:21:00,
2013-09-02 14:26:00,64.1,52.5,30.03,NE,45,2.0,3.0,66,0.00,,OVC024,0.00,VWS V14.01,2013-09-02 19:26:00,
2013-09-02 14:31:00,63.5,52.8,30.03,NNW,340,1.0,4.0,68,0.00,,OVC026,0.00,VWS V14.01,2013-09-02 19:31:00,
2013-09-02 14:36:00,64.1,53.3,30.03,NNE,20,1.0,4.0,68,0.00,,OVC026,0.00,VWS V14.01,2013-09-02 19:36:00,
2013-09-02 14:41:00,64.2,52.6,30.02,East,84,0.0,4.0,66,0.00,,OVC026,0.00,VWS V14.01,2013-09-02 19:41:00,
2013-09-02 14:46:00,63.8,51.8,30.02,ESE,123,0.0,4.0,65,0.00,,OVC026,0.00,VWS V14.01,2013-09-02 19:46:00,
2013-09-02 14:51:00,65.1,53.5,30.02,NNW,333,1.0,6.0,66,0.00,,OVC026,0.00,VWS V14.01,2013-09-02 19:51:00,
2013-09-02 14:56:00,64.7,52.7,30.02,ENE,75,1.0,6.0,65,0.00,,OVC026,0.00,VWS V14.01,2013-09-02 19:56:00,
2013-09-02 15:01:00,64.2,52.2,30.02,ESE,113,2.0,4.0,65,0.00,,OVC026,0.00,VWS V14.01,2013-09-02 20:01:00,
2013-09-02 15:06:00,64.5,52.9,30.02,East,101,0.0,4.0,66,0.00,,OVC026,0.00,VWS V14.01,2013-09-02 20:06:00,
2013-09-02 15:11:00,64.5,52.5,30.02,East,86,1.0,4.0,65,0.00,,OVC026,0.00,VWS V14.01,2013-09-02 20:11:00,
2013-09-02 15:16:00,64.1,52.9,30.02,East,89,1.0,4.0,67,0.00,,OVC026,0.00,VWS V14.01,2013-09-02 20:16:00,
2013-09-02 15:21:00,64.3,53.5,30.02,ENE,58,1.0,4.0,68,0.00,,OVC026,0.00,VWS V14.01,2013-09-02 20:21:00,
2013-09-02 15:26:00,65.2,54.0,30.02,West,281,1.0,7.0,67,0.00,,OVC026,0.00,VWS V14.01,2013-09-02 20:26:00,
2013-09-02 15:31:00,66.4,53.9,30.02,North,357,2.0,3.0,64,0.00,,BKN028,0.00,VWS V14.01,2013-09-02 20:31:00,
2013-09-02 15:36:00,66.6,52.8,30.02,NW,307,3.0,4.0,61,0.00,,SCT028,0.00,VWS V14.01,2013-09-02 20:36:00,
2013-09-02 15:41:00,66.6,53.2,30.01,West,263,3.0,4.0,62,0.00,,SCT028,0.00,VWS V14.01,2013-09-02 20:41:00,
2013-09-02 15:46:00,66.8,52.5,30.01,NNW,328,3.0,6.0,60,0.00,,SCT028,0.00,VWS V14.01,2013-09-02 20:46:00,
2013-09-02 15:51:00,66.5,52.2,30.01,WSW,253,4.0,6.0,60,0.00,,SCT028,0.00,VWS V14.01,2013-09-02 20:51:00,
2013-09-02 15:56:00,67.0,53.1,30.01,ESE,113,0.0,6.0,61,0.00,,BKN028,0.00,VWS V14.01,2013-09-02 20:56:00,
2013-09-02 16:01:00,67.6,53.2,30.01,WSW,255,2.0,3.0,60,0.00,,SCT028,0.00,VWS V14.01,2013-09-02 21:01:00,
2013-09-02 16:06:00,67.3,53.0,30.01,WNW,302,0.0,3.0,60,0.00,,SCT028,0.00,VWS V14.01,2013-09-02 21:06:00,
2013-09-02 16:11:00,66.9,52.6,30.01,NE,46,2.0,6.0,60,0.00,,SCT028,0.00,VWS V14.01,2013-09-02 21:11:00,
2013-09-02 16:16:00,66.7,52.8,30.01,NNE,30,1.0,6.0,61,0.00,,BKN028,0.00,VWS V14.01,2013-09-02 21:16:00,
2013-09-02 16:21:00,67.5,53.1,30.01,NE,45,1.0,6.0,60,0.00,,SCT028,0.00,VWS V14.01,2013-09-02 21:21:00,
2013-09-02 16:26:00,67.3,53.0,30.00,West,273,0.0,6.0,60,0.00,,SCT028,0.00,VWS V14.01,2013-09-02 21:26:00,
2013-09-02 16:31:00,67.4,53.0,30.00,WNW,297,0.0,5.0,60,0.00,,SCT028,0.00,VWS V14.01,2013-09-02 21:31:00,
2013-09-02 16:36:00,67.3,53.4,30.00,NNE,32,2.0,5.0,61,0.00,,CLR,0.00,VWS V14.01,2013-09-02 21:36:00,
2013-09-02 16:41:00,67.7,53.3,30.00,WNW,289,1.0,5.0,60,0.00,,CLR,0.00,VWS V14.01,2013-09-02 21:41:00,
2013-09-02 16:46:00,67.6,52.3,30.00,ENE,69,1.0,5.0,58,0.00,,CLR,0.00,VWS V14.01,2013-09-02 21:46:00,
2013-09-02 16:51:00,67.4,52.6,30.00,South,190,1.0,5.0,59,0.00,,CLR,0.00,VWS V14.01,2013-09-02 21:51:00,
2013-09-02 16:56:00,67.8,53.0,30.00,WNW,291,1.0,5.0,59,0.00,,CLR,0.00,VWS V14.01,2013-09-02 21:56:00,
2013-09-02 17:01:00,68.5,53.6,30.00,SE,128,0.0,2.0,59,0.00,,CLR,0.00,VWS V14.01,2013-09-02 22:01:00,
2013-09-02 17:06:00,69.1,53.7,30.00,ESE,117,1.0,2.0,58,0.00,,CLR,0.00,VWS V14.01,2013-09-02 22:06:00,
2013-09-02 17:11:00,69.1,54.2,30.00,ESE,108,0.0,2.0,59,0.00,,CLR,0.00,VWS V14.01,2013-09-02 22:11:00,
2013-09-02 17:16:00,68.8,53.0,30.00,WNW,285,0.0,3.0,57,0.00,,CLR,0.00,VWS V14.01,2013-09-02 22:16:00,
2013-09-02 17:21:00,68.8,53.4,30.00,NNE,27,1.0,3.0,58,0.00,,CLR,0.00,VWS V14.01,2013-09-02 22:21:00,
2013-09-02 17:26:00,68.4,53.1,30.00,East,92,0.0,3.0,58,0.00,,CLR,0.00,VWS V14.01,2013-09-02 22:26:00,
2013-09-02 17:31:00,68.7,53.8,30.00,West,267,3.0,3.0,59,0.00,,CLR,0.00,VWS V14.01,2013-09-02 22:31:00,
2013-09-02 17:36:00,68.8,53.4,29.99,SE,125,1.0,3.0,58,0.00,,CLR,0.00,VWS V14.01,2013-09-02 22:36:00,
2013-09-02 17:41:00,68.2,52.9,30.00,NE,51,0.0,5.0,58,0.00,,CLR,0.00,VWS V14.01,2013-09-02 22:41:00,
2013-09-02 17:46:00,68.1,53.2,29.99,East,92,0.0,5.0,59,0.00,,CLR,0.00,VWS V14.01,2013-09-02 22:46:00,
2013-09-02 17:51:00,68.0,53.2,29.99,East,89,0.0,5.0,59,0.00,,CLR,0.00,VWS V14.01,2013-09-02 22:51:00,
2013-09-02 17:56:00,68.1,53.7,29.99,East,92,0.0,5.0,60,0.00,,CLR,0.00,VWS V14.01,2013-09-02 22:56:00,
2013-09-02 18:01:00,68.1,53.7,29.99,East,97,0.0,1.0,60,0.00,,CLR,0.00,VWS V14.01,2013-09-02 23:01:00,
2013-09-02 18:06:00,68.1,53.2,29.99,East,94,0.0,1.0,59,0.00,,CLR,0.00,VWS V14.01,2013-09-02 23:06:00,
2013-09-02 18:11:00,68.6,53.7,29.99,East,95,0.0,1.0,59,0.00,,CLR,0.00,VWS V14.01,2013-09-02 23:11:00,
2013-09-02 18:16:00,69.3,53.4,29.99,West,264,1.0,2.0,57,0.00,,CLR,0.00,VWS V14.01,2013-09-02 23:16:00,
2013-09-02 18:21:00,69.4,54.0,29.99,SSE,158,0.0,2.0,58,0.00,,CLR,0.00,VWS V14.01,2013-09-02 23:21:00,
2013-09-02 18:26:00,69.4,54.0,30.00,WNW,293,1.0,2.0,58,0.00,,CLR,0.00,VWS V14.01,2013-09-02 23:26:00,
2013-09-02 18:31:00,69.3,53.4,30.00,NNE,25,0.0,1.0,57,0.00,,CLR,0.00,VWS V14.01,2013-09-02 23:31:00,
2013-09-02 18:36:00,69.0,53.6,30.00,NE,49,2.0,3.0,58,0.00,,CLR,0.00,VWS V14.01,2013-09-02 23:36:00,
2013-09-02 18:41:00,69.1,53.7,29.99,East,96,1.0,3.0,58,0.00,,CLR,0.00,VWS V14.01,2013-09-02 23:41:00,
2013-09-02 18:45:00,69.2,53.3,30.00,West,280,1.0,3.0,57,0.00,,CLR,0.00,VWS V14.01,2013-09-02 23:45:00,
2013-09-02 18:50:00,69.0,53.2,30.00,SSE,165,0.0,3.0,57,0.00,,CLR,0.00,VWS V14.01,2013-09-02 23:50:00,
2013-09-02 18:55:00,68.5,52.7,29.99,ESE,105,0.0,3.0,57,0.00,,CLR,0.00,VWS V14.01,2013-09-02 23:55:00,
2013-09-02 19:00:00,68.1,53.2,29.99,ESE,105,0.0,0.0,59,0.00,,CLR,0.00,VWS V14.01,2013-09-03 00:00:00,
2013-09-02 19:05:00,68.2,53.3,29.99,ESE,105,0.0,0.0,59,0.00,,CLR,0.00,VWS V14.01,2013-09-03 00:05:00,
2013-09-02 19:10:00,68.1,53.2,29.99,ESE,105,0.0,0.0,59,0.00,,CLR,0.00,VWS V14.01,2013-09-03 00:10:00,
2013-09-02 19:15:00,67.2,52.9,30.00,ESE,104,0.0,0.0,60,0.00,,CLR,0.00,VWS V14.01,2013-09-03 00:15:00,
2013-09-02 19:20:00,66.4,53.0,29.99,ESE,105,0.0,0.0,62,0.00,,CLR,0.00,VWS V14.01,2013-09-03 00:20:00,
2013-09-02 19:25:00,65.7,53.2,29.99,ESE,104,0.0,0.0,64,0.00,,CLR,0.00,VWS V14.01,2013-09-03 00:25:00,
2013-09-02 19:30:00,65.0,53.0,29.99,ESE,105,0.0,0.0,65,0.00,,CLR,0.00,VWS V14.01,2013-09-03 00:30:00,
2013-09-02 19:35:00,64.2,53.0,29.99,ESE,105,0.0,0.0,67,0.00,,CLR,0.00,VWS V14.01,2013-09-03 00:35:00,
2013-09-02 19:40:00,63.6,52.9,29.99,ESE,104,0.0,0.0,68,0.00,,CLR,0.00,VWS V14.01,2013-09-03 00:40:00,
2013-09-02 19:45:00,63.0,52.7,29.99,ESE,104,0.0,0.0,69,0.00,,CLR,0.00,VWS V14.01,2013-09-03 00:45:00,
2013-09-02 19:50:00,62.3,52.8,29.99,ESE,104,0.0,0.0,71,0.00,,CLR,0.00,VWS V14.01,2013-09-03 00:50:00,
2013-09-02 19:55:00,61.8,52.7,29.99,ESE,105,0.0,0.0,72,0.00,,CLR,0.00,VWS V14.01,2013-09-03 00:55:00,
2013-09-02 20:00:00,61.4,53.0,29.99,ESE,104,0.0,0.0,74,0.00,,CLR,0.00,VWS V14.01,2013-09-03 01:00:00,
2013-09-02 20:05:00,61.0,52.3,29.99,ESE,104,0.0,0.0,73,0.00,,CLR,0.00,VWS V14.01,2013-09-03 01:05:00,
2013-09-02 20:10:00,60.6,52.3,29.99,ESE,104,0.0,0.0,74,0.00,,CLR,0.00,VWS V14.01,2013-09-03 01:10:00,
2013-09-02 20:15:00,60.2,52.3,29.99,ESE,104,0.0,0.0,75,0.00,,CLR,0.00,VWS V14.01,2013-09-03 01:15:00,
2013-09-02 20:20:00,59.7,52.5,29.99,ESE,104,0.0,0.0,77,0.00,,CLR,0.00,VWS V14.01,2013-09-03 01:20:00,
2013-09-02 20:25:00,59.2,52.3,29.99,ESE,104,0.0,0.0,78,0.00,,CLR,0.00,VWS V14.01,2013-09-03 01:25:00,
2013-09-02 20:30:00,58.6,51.8,29.99,ESE,105,0.0,0.0,78,0.00,,CLR,0.00,VWS V14.01,2013-09-03 01:30:00,
2013-09-02 20:35:00,58.0,51.5,29.99,ESE,104,0.0,0.0,79,0.00,,CLR,0.00,VWS V14.01,2013-09-03 01:35:00,
2013-09-02 20:40:00,57.7,51.9,29.99,ESE,104,0.0,0.0,81,0.00,,CLR,0.00,VWS V14.01,2013-09-03 01:40:00,
2013-09-02 20:45:00,57.6,51.8,30.00,ESE,104,0.0,0.0,81,0.00,,CLR,0.00,VWS V14.01,2013-09-03 01:45:00,
2013-09-02 20:50:00,57.5,51.7,30.00,ESE,105,0.0,0.0,81,0.00,,SCT120,0.00,VWS V14.01,2013-09-03 01:50:00,
2013-09-02 20:55:00,57.3,51.5,30.00,ESE,104,0.0,0.0,81,0.00,,SCT120,0.00,VWS V14.01,2013-09-03 01:55:00,
2013-09-02 21:00:00,56.9,51.1,30.00,ESE,104,0.0,0.0,81,0.00,,SCT120,0.00,VWS V14.01,2013-09-03 02:00:00,
2013-09-02 21:05:00,56.4,51.0,30.00,ESE,104,0.0,0.0,82,0.00,,SCT120,0.00,VWS V14.01,2013-09-03 02:05:00,
2013-09-02 21:10:00,55.9,50.8,30.00,ESE,106,0.0,0.0,83,0.00,,SCT120,0.00,VWS V14.01,2013-09-03 02:10:00,
2013-09-02 21:15:00,55.7,51.0,30.00,ESE,105,0.0,0.0,84,0.00,,SCT120,0.00,VWS V14.01,2013-09-03 02:15:00,
2013-09-02 21:20:00,55.4,50.7,30.00,ESE,104,0.0,0.0,84,0.00,,SCT120,0.00,VWS V14.01,2013-09-03 02:20:00,
2013-09-02 21:25:00,55.3,50.6,30.00,ESE,104,0.0,0.0,84,0.00,,SCT120,0.00,VWS V14.01,2013-09-03 02:25:00,
2013-09-02 21:30:00,55.2,50.8,30.00,ESE,104,0.0,0.0,85,0.00,,SCT120,0.00,VWS V14.01,2013-09-03 02:30:00,
2013-09-02 21:35:00,55.0,50.6,30.00,ESE,105,0.0,0.0,85,0.00,,BKN120,0.00,VWS V14.01,2013-09-03 02:35:00,
2013-09-02 21:40:00,54.7,50.3,30.00,ESE,104,0.0,0.0,85,0.00,,BKN120,0.00,VWS V14.01,2013-09-03 02:40:00,
2013-09-02 21:45:00,54.4,50.3,30.00,ESE,104,0.0,0.0,86,0.00,,BKN120,0.00,VWS V14.01,2013-09-03 02:45:00,
2013-09-02 21:50:00,54.1,50.3,30.00,ESE,105,0.0,0.0,87,0.00,,BKN120,0.00,VWS V14.01,2013-09-03 02:50:00,
2013-09-02 21:55:00,53.8,50.3,30.00,ESE,105,0.0,0.0,88,0.00,,BKN120,0.00,VWS V14.01,2013-09-03 02:55:00,
2013-09-02 22:00:00,53.8,50.6,30.00,ESE,106,0.0,0.0,89,0.00,,BKN120,0.00,VWS V14.01,2013-09-03 03:00:00,
2013-09-02 22:05:00,54.1,50.9,30.00,ESE,105,0.0,0.0,89,0.00,,BKN120,0.00,VWS V14.01,2013-09-03 03:05:00,
2013-09-02 22:10:00,53.9,50.4,30.00,ESE,104,0.0,0.0,88,0.00,,BKN120,0.00,VWS V14.01,2013-09-03 03:10:00,
2013-09-02 22:15:00,53.9,50.7,30.00,ESE,106,0.0,0.0,89,0.00,,BKN120,0.00,VWS V14.01,2013-09-03 03:15:00,
2013-09-02 22:20:00,54.0,50.8,30.01,ESE,106,0.0,0.0,89,0.00,,BKN120,0.00,VWS V14.01,2013-09-03 03:20:00,
2013-09-02 22:25:00,54.0,50.8,30.01,ESE,104,0.0,0.0,89,0.00,,BKN120,0.00,VWS V14.01,2013-09-03 03:25:00,
2013-09-02 22:30:00,54.0,50.8,30.01,ESE,105,0.0,0.0,89,0.00,,BKN120,0.00,VWS V14.01,2013-09-03 03:30:00,
2013-09-02 22:35:00,53.9,50.4,30.01,ESE,105,0.0,0.0,88,0.00,,BKN110,0.00,VWS V14.01,2013-09-03 03:35:00,
2013-09-02 22:40:00,53.9,50.4,30.00,ESE,106,0.0,0.0,88,0.00,,BKN110,0.00,VWS V14.01,2013-09-03 03:40:00,
2013-09-02 22:45:00,53.7,50.2,30.01,ESE,106,0.0,0.0,88,0.00,,BKN110,0.00,VWS V14.01,2013-09-03 03:45:00,
2013-09-02 22:50:00,53.6,50.1,30.01,ESE,106,0.0,0.0,88,0.00,,BKN110,0.00,VWS V14.01,2013-09-03 03:50:00,
2013-09-02 22:55:00,53.5,50.3,30.01,ESE,106,0.0,0.0,89,0.00,,BKN110,0.00,VWS V14.01,2013-09-03 03:55:00,
2013-09-02 23:00:00,53.4,50.5,30.01,ESE,105,0.0,0.0,90,0.00,,BKN110,0.00,VWS V14.01,2013-09-03 04:00:00,
2013-09-02 23:01:00,53.4,50.5,30.01,ESE,105,0.0,0.0,90,0.00,,BKN110,0.00,VWS V14.01,2013-09-03 04:01:00,
2013-09-02 23:02:00,53.3,50.5,30.01,ESE,106,0.0,0.0,90,0.00,,BKN110,0.00,VWS V14.01,2013-09-03 04:02:00,
2013-09-02 23:07:00,53.1,50.5,30.01,ESE,106,0.0,0.0,91,0.00,,BKN110,0.00,VWS V14.01,2013-09-03 04:07:00,
2013-09-02 23:12:00,53.1,50.5,30.01,ESE,106,0.0,0.0,91,0.00,,BKN110,0.00,VWS V14.01,2013-09-03 04:12:00,
2013-09-02 23:17:00,52.9,50.3,30.01,ESE,105,0.0,0.0,91,0.00,,BKN110,0.00,VWS V14.01,2013-09-03 04:17:00,
2013-09-02 23:22:00,52.6,50.0,30.01,ESE,106,0.0,0.0,91,0.00,,BKN110,0.00,VWS V14.01,2013-09-03 04:22:00,
2013-09-02 23:27:00,52.4,50.2,30.01,ESE,106,0.0,0.0,92,0.00,,BKN110,0.00,VWS V14.01,2013-09-03 04:27:00,
2013-09-02 23:32:00,52.6,50.6,30.01,ESE,105,0.0,0.0,93,0.00,,BKN110,0.00,VWS V14.01,2013-09-03 04:32:00,
2013-09-02 23:37:00,52.9,50.9,30.01,ESE,106,0.0,0.0,93,0.00,,BKN110,0.00,VWS V14.01,2013-09-03 04:37:00,
2013-09-02 23:42:00,52.8,50.8,30.01,ESE,105,0.0,0.0,93,0.00,,BKN110,0.00,VWS V14.01,2013-09-03 04:42:00,
2013-09-02 23:47:00,52.6,50.6,30.01,ESE,106,0.0,0.0,93,0.00,,BKN110,0.00,VWS V14.01,2013-09-03 04:47:00,
2013-09-02 23:52:00,52.4,50.4,30.01,ESE,105,0.0,0.0,93,0.00,,BKN110,0.00,VWS V14.01,2013-09-03 04:52:00,
2013-09-02 23:57:00,52.1,50.1,30.01,ESE,105,0.0,0.0,93,0.00,,BKN110,0.00,VWS V14.01,2013-09-03 04:57:00,